Location: Frankfurt am Main
(50.1109°N, 8.6821°E)
Time: 06:40:21
(UTC+01:00)

ISS - Pass Details

Date: 01 November 2021
Orbit: 417 x 422 km, 51.6° (Epoch: 04 December)

Event Time Altitude Azimuth Distance (km) Brightness Sun altitude
Exits shadow 04:41:56 34° 68° (ENE) 720 -2.1 -24.9°
Drops below altitude 10° 04:43:58 10° 76° (ENE) 1,502 0.1 -24.6°
Sets 04:46:05 0° 79° (E) 2,365 1.5 -24.3°
